| time (UTC) | temp F | wind direction | speed knots | gust knots | rain 1hr in | rain 24hr in | rain mn in | humidity % | barometer mb |
| 20260504024053 | 63 | 253 | 2.6 | 6.1 | 0.01 | 0.07 | 0.07 | 47 | 1004.7 |
| 20260504023549 | 64 | 198 | 2.6 | 7.8 | 0.01 | 0.07 | 0.07 | 46 | 1004.6 |
| 20260504023049 | 64 | 251 | 3.5 | 7.8 | 0.01 | 0.07 | 0.07 | 46 | 1004.7 |
| 20260504022548 | 64 | 219 | 0.0 | 7.0 | 0.01 | 0.07 | 0.07 | 46 | 1004.7 |
| 20260504022307 | 64 | 251 | 1.7 | 5.2 | 0.01 | 0.07 | 0.07 | 45 | 1004.7 |
| 20260504021543 | 64 | 284 | 0.9 | 6.1 | 0.00 | 0.06 | 0.06 | 45 | 1004.7 |
| 20260504021519 | 64 | 187 | 2.6 | 6.1 | 0.00 | 0.06 | 0.06 | 45 | 1004.7 |
| 20260504020527 | 64 | 192 | 0.9 | 7.0 | 0.00 | 0.06 | 0.06 | 44 | 1004.6 |
| 20260504020029 | 65 | 213 | 2.6 | 7.0 | 0.00 | 0.06 | 0.06 | 44 | 1004.6 |
| 20260504015512 | 65 | 258 | 0.0 | 4.3 | 0.00 | 0.06 | 0.06 | 44 | 1004.5 |
| 20260504015006 | 65 | 213 | 0.0 | 7.8 | 0.00 | 0.06 | 0.06 | 43 | 1004.2 |
| 20260504015001 | 65 | 229 | 1.7 | 7.0 | 0.00 | 0.06 | 0.06 | 43 | 1004.3 |
| 20260504013941 | 65 | 217 | 2.6 | 7.8 | 0.00 | 0.06 | 0.06 | 42 | 1004.2 |
| 20260504013708 | 65 | 267 | 0.0 | 7.0 | 0.00 | 0.06 | 0.06 | 42 | 1004.1 |
| 20260504012936 | 66 | 243 | 0.0 | 7.0 | 0.00 | 0.06 | 0.06 | 41 | 1004.0 |
| 20260504012427 | 66 | 194 | 0.9 | 7.0 | 0.00 | 0.06 | 0.06 | 41 | 1004.0 |
| 20260504011927 | 66 | 225 | 1.7 | 7.8 | 0.00 | 0.06 | 0.06 | 40 | 1004.0 |
| 20260504011427 | 66 | 255 | 0.9 | 7.8 | 0.00 | 0.06 | 0.06 | 40 | 1003.9 |
| 20260504010921 | 67 | 285 | 1.7 | 7.8 | 0.00 | 0.06 | 0.06 | 40 | 1003.9 |
| 20260504010423 | 67 | 241 | 1.7 | 8.7 | 0.00 | 0.06 | 0.06 | 39 | 1004.0 |
| 20260504005921 | 67 | 195 | 3.5 | 8.7 | 0.00 | 0.06 | 0.06 | 39 | 1004.0 |
| 20260504005410 | 67 | 267 | 0.9 | 7.8 | 0.00 | 0.06 | 0.06 | 39 | 1004.0 |
| 20260504004910 | 67 | 262 | 0.0 | 7.8 | 0.00 | 0.06 | 0.06 | 38 | 1004.1 |
| 20260504004402 | 67 | 250 | 0.0 | 8.7 | 0.00 | 0.06 | 0.06 | 38 | 1004.1 |
| 20260504003901 | 67 | 267 | 3.5 | 8.7 | 0.00 | 0.06 | 0.06 | 38 | 1004.0 |
| 20260504003359 | 68 | 226 | 2.6 | 7.8 | 0.00 | 0.06 | 0.06 | 37 | 1004.0 |
| 20260504002857 | 68 | 319 | 2.6 | 8.7 | 0.00 | 0.06 | 0.06 | 37 | 1004.0 |
| 20260504002350 | 68 | 225 | 4.3 | 12.2 | 0.00 | 0.06 | 0.06 | 36 | 1003.9 |
| 20260504001850 | 68 | 293 | 0.0 | 12.2 | 0.00 | 0.06 | 0.06 | 36 | 1003.9 |
| 20260504001349 | 68 | 223 | 1.7 | 11.3 | 0.00 | 0.06 | 0.06 | 35 | 1004.0 |
| 20260504000852 | 68 | 258 | 4.3 | 8.7 | 0.00 | 0.06 | 0.06 | 35 | 1004.0 |
| 20260504000610 | 69 | 264 | 0.9 | 14.8 | 0.00 | 0.06 | 0.06 | 35 | 1003.9 |
| 20260503235849 | 69 | 215 | 1.7 | 14.8 | 0.00 | 0.06 | 0.06 | 35 | 1003.8 |
| 20260503235607 | 69 | 279 | 1.7 | 11.3 | 0.00 | 0.06 | 0.06 | 35 | 1003.8 |
| 20260503234847 | 69 | 300 | 0.0 | 13.0 | 0.00 | 0.06 | 0.06 | 34 | 1003.9 |
| 20260503234339 | 68 | 213 | 4.3 | 13.0 | 0.00 | 0.06 | 0.06 | 34 | 1003.9 |
| 20260503234103 | 68 | 272 | 2.6 | 13.0 | 0.00 | 0.06 | 0.06 | 34 | 1003.9 |
| 20260503233337 | 68 | 254 | 4.3 | 12.2 | 0.00 | 0.06 | 0.06 | 34 | 1003.9 |
| 20260503232839 | 68 | 243 | 3.5 | 14.8 | 0.00 | 0.06 | 0.06 | 34 | 1004.0 |
| 20260503232333 | 68 | 261 | 4.3 | 14.8 | 0.00 | 0.06 | 0.06 | 34 | 1004.0 |
| 20260503231825 | 68 | 251 | 1.7 | 12.2 | 0.00 | 0.06 | 0.06 | 33 | 1004.1 |
| 20260503231550 | 68 | 219 | 0.9 | 10.4 | 0.00 | 0.06 | 0.06 | 34 | 1004.1 |
| 20260503231040 | 68 | 275 | 0.9 | 13.0 | 0.00 | 0.06 | 0.06 | 34 | 1004.1 |
| 20260503230552 | 67 | 291 | 7.8 | 13.0 | 0.00 | 0.06 | 0.06 | 33 | 1004.3 |
| 20260503225818 | 68 | 243 | 4.3 | 12.2 | 0.00 | 0.06 | 0.06 | 33 | 1004.3 |
| 20260503225319 | 68 | 195 | 0.9 | 14.8 | 0.00 | 0.06 | 0.06 | 34 | 1004.3 |
| 20260503224820 | 67 | 126 | 7.8 | 14.8 | 0.00 | 0.06 | 0.06 | 33 | 1004.6 |
| 20260503224814 | 67 | 289 | 7.0 | 14.8 | 0.00 | 0.06 | 0.06 | 34 | 1004.4 |
| 20260503223811 | 68 | 219 | 4.3 | 13.9 | 0.00 | 0.06 | 0.06 | 33 | 1004.6 |
| 20260503223315 | 67 | 196 | 4.3 | 13.9 | 0.00 | 0.06 | 0.06 | 34 | 1004.5 |
| 20260503222811 | 67 | 250 | 7.0 | 12.2 | 0.00 | 0.06 | 0.06 | 33 | 1004.7 |
| 20260503222309 | 67 | 241 | 7.8 | 15.6 | 0.00 | 0.06 | 0.06 | 33 | 1004.9 |
| 20260503221808 | 67 | 244 | 7.0 | 13.9 | 0.00 | 0.08 | 0.06 | 33 | 1005.0 |
| 20260503221308 | 67 | 178 | 8.7 | 20.0 | 0.00 | 0.08 | 0.06 | 33 | 1005.1 |
| 20260503220808 | 67 | 244 | 3.5 | 20.0 | 0.00 | 0.08 | 0.06 | 33 | 1005.1 |
| 20260503220306 | 67 | 229 | 6.1 | 17.4 | 0.00 | 0.08 | 0.06 | 33 | 1005.2 |
| 20260503215807 | 67 | 261 | 7.8 | 20.0 | 0.00 | 0.08 | 0.06 | 32 | 1005.2 |
| 20260503215306 | 67 | 320 | 7.8 | 20.0 | 0.00 | 0.08 | 0.06 | 33 | 1005.2 |
| 20260503214804 | 67 | 277 | 10.4 | 20.0 | 0.00 | 0.08 | 0.06 | 32 | 1005.2 |
| 20260503214304 | 67 | 291 | 5.2 | 17.4 | 0.00 | 0.08 | 0.06 | 32 | 1005.2 |
| 20260503213746 | 66 | 233 | 7.0 | 17.4 | 0.00 | 0.08 | 0.06 | 33 | 1005.3 |
| 20260503213503 | 66 | 244 | 8.7 | 19.1 | 0.00 | 0.08 | 0.06 | 32 | 1005.4 |
| 20260503212744 | 65 | 217 | 6.1 | 19.1 | 0.00 | 0.08 | 0.06 | 32 | 1005.5 |
| 20260503212242 | 65 | 298 | 7.8 | 16.5 | 0.00 | 0.08 | 0.06 | 32 | 1005.5 |
| 20260503211742 | 65 | 288 | 7.0 | 16.5 | 0.00 | 0.08 | 0.06 | 33 | 1005.5 |
| 20260503211241 | 65 | 316 | 6.1 | 15.6 | 0.00 | 0.08 | 0.06 | 33 | 1005.7 |
| 20260503210742 | 65 | 244 | 5.2 | 15.6 | 0.00 | 0.08 | 0.06 | 34 | 1005.7 |
| 20260503210241 | 65 | 232 | 5.2 | 15.6 | 0.00 | 0.08 | 0.06 | 33 | 1005.8 |
| 20260503205744 | 65 | 216 | 5.2 | 15.6 | 0.00 | 0.08 | 0.06 | 32 | 1005.8 |
| 20260503205240 | 65 | 303 | 7.8 | 15.6 | 0.00 | 0.08 | 0.06 | 32 | 1006.0 |
| 20260503204738 | 65 | 188 | 6.1 | 16.5 | 0.00 | 0.08 | 0.06 | 32 | 1006.1 |
| 20260503204237 | 66 | 229 | 4.3 | 18.2 | 0.00 | 0.08 | 0.06 | 33 | 1006.2 |
| 20260503203953 | 65 | 222 | 5.2 | 20.9 | 0.00 | 0.08 | 0.06 | 33 | 1006.3 |
| 20260503203237 | 65 | 253 | 8.7 | 20.9 | 0.00 | 0.08 | 0.06 | 33 | 1006.5 |
| 20260503202736 | 65 | 201 | 5.2 | 20.0 | 0.00 | 0.08 | 0.06 | 35 | 1006.4 |
| 20260503202234 | 65 | 257 | 3.5 | 20.9 | 0.00 | 0.08 | 0.06 | 35 | 1006.5 |
| 20260503201734 | 64 | 212 | 7.8 | 20.9 | 0.02 | 0.08 | 0.06 | 34 | 1006.8 |
| 20260503201233 | 64 | 219 | 7.8 | 26.9 | 0.02 | 0.08 | 0.06 | 35 | 1006.9 |
| 20260503200733 | 64 | 230 | 8.7 | 26.9 | 0.02 | 0.08 | 0.06 | 35 | 1006.8 |
| 20260503200450 | 64 | 267 | 7.8 | 26.9 | 0.02 | 0.08 | 0.06 | 35 | 1007.0 |
| 20260503195732 | 63 | 198 | 9.6 | 21.7 | 0.02 | 0.08 | 0.06 | 40 | 1007.0 |
| 20260503195232 | 62 | 195 | 6.1 | 21.7 | 0.02 | 0.08 | 0.06 | 42 | 1007.0 |
| 20260503194733 | 62 | 248 | 5.2 | 21.7 | 0.02 | 0.08 | 0.06 | 43 | 1007.1 |
| 20260503194452 | 62 | 168 | 9.6 | 18.2 | 0.02 | 0.08 | 0.06 | 42 | 1007.1 |
| 20260503193951 | 61 | 284 | 4.3 | 18.2 | 0.02 | 0.08 | 0.06 | 44 | 1007.2 |
| 20260503193227 | 61 | 251 | 5.2 | 18.2 | 0.02 | 0.08 | 0.06 | 43 | 1007.4 |
| 20260503192728 | 60 | 195 | 7.0 | 18.2 | 0.02 | 0.08 | 0.06 | 43 | 1007.4 |
| 20260503192226 | 60 | 195 | 8.7 | 18.2 | 0.02 | 0.08 | 0.06 | 42 | 1007.5 |
| 20260503191727 | 60 | 240 | 6.1 | 20.0 | 0.00 | 0.06 | 0.04 | 43 | 1007.6 |
| 20260503191226 | 59 | 210 | 6.1 | 20.0 | 0.00 | 0.06 | 0.04 | 43 | 1007.8 |
| 20260503190724 | 58 | 261 | 9.6 | 18.2 | 0.00 | 0.06 | 0.04 | 43 | 1007.8 |
| 20260503190223 | 59 | 185 | 7.0 | 17.4 | 0.00 | 0.06 | 0.04 | 46 | 1007.9 |
| 20260503185724 | 59 | 132 | 5.2 | 16.5 | 0.00 | 0.06 | 0.04 | 45 | 1008.0 |
| 20260503185222 | 58 | 215 | 7.0 | 16.5 | 0.00 | 0.06 | 0.04 | 47 | 1008.0 |
| 20260503184945 | 58 | 227 | 9.6 | 18.2 | 0.00 | 0.06 | 0.04 | 48 | 1008.2 |
| 20260503184447 | 57 | 175 | 7.8 | 18.2 | 0.00 | 0.06 | 0.04 | 49 | 1008.2 |
| 20260503183722 | 56 | 213 | 7.8 | 19.1 | 0.00 | 0.06 | 0.04 | 50 | 1008.4 |
| 20260503183222 | 56 | 210 | 7.8 | 19.1 | 0.00 | 0.06 | 0.04 | 51 | 1008.4 |
| 20260503182720 | 56 | 208 | 9.6 | 14.8 | 0.00 | 0.06 | 0.04 | 51 | 1008.5 |
| 20260503182219 | 56 | 175 | 7.0 | 18.2 | 0.00 | 0.06 | 0.04 | 52 | 1008.6 |
| 20260503181717 | 55 | 129 | 8.7 | 18.2 | 0.00 | 0.06 | 0.04 | 52 | 1008.8 |
| 20260503181218 | 56 | 234 | 9.6 | 16.5 | 0.00 | 0.06 | 0.04 | 52 | 1009.2 |
| 20260503180717 | 56 | 225 | 5.2 | 15.6 | 0.00 | 0.06 | 0.04 | 52 | 1009.6 |
| 20260503180215 | 56 | 149 | 5.2 | 18.2 | 0.00 | 0.06 | 0.04 | 53 | 1009.8 |
| 20260503175715 | 56 | 271 | 5.2 | 20.0 | 0.00 | 0.06 | 0.04 | 53 | 1009.9 |
| 20260503175214 | 56 | 295 | 5.2 | 20.0 | 0.00 | 0.06 | 0.04 | 54 | 1010.1 |
| 20260503174714 | 55 | 253 | 9.6 | 20.0 | 0.00 | 0.06 | 0.04 | 53 | 1010.4 |
| 20260503174214 | 55 | 180 | 7.0 | 17.4 | 0.00 | 0.06 | 0.04 | 55 | 1010.4 |
| 20260503173712 | 55 | 244 | 6.1 | 15.6 | 0.00 | 0.06 | 0.04 | 56 | 1010.4 |
| 20260503173431 | 55 | 187 | 7.8 | 13.9 | 0.00 | 0.06 | 0.04 | 58 | 1010.6 |
| 20260503172711 | 55 | 257 | 5.2 | 15.6 | 0.00 | 0.06 | 0.04 | 58 | 1010.9 |
| 20260503172213 | 55 | 175 | 3.5 | 15.6 | 0.00 | 0.06 | 0.04 | 59 | 1011.1 |
| 20260503171712 | 54 | 191 | 6.1 | 15.6 | 0.00 | 0.06 | 0.04 | 60 | 1011.1 |
| 20260503171211 | 53 | 226 | 6.1 | 14.8 | 0.00 | 0.06 | 0.04 | 62 | 1011.2 |
| 20260503170707 | 53 | 244 | 5.2 | 14.8 | 0.00 | 0.06 | 0.04 | 63 | 1011.2 |
| 20260503170207 | 52 | 202 | 4.3 | 14.8 | 0.00 | 0.06 | 0.04 | 64 | 1011.3 |
| 20260503150641 | 55 | 271 | 7.0 | 13.9 | 0.00 | 0.06 | 0.04 | 49 | 1011.9 |
| 20260503150134 | 55 | 241 | 4.3 | 14.8 | 0.00 | 0.06 | 0.04 | 49 | 1011.9 |
| 20260503140121 | 54 | 265 | 7.8 | 14.8 | 0.00 | 0.06 | 0.04 | 47 | 1012.8 |
| 20260503131107 | 53 | 274 | 1.7 | 14.8 | 0.02 | 0.06 | 0.04 | 48 | 1013.0 |
| 20260503130828 | 53 | 246 | 6.1 | 14.8 | 0.02 | 0.06 | 0.04 | 47 | 1013.0 |
| 20260503130107 | 53 | 233 | 4.3 | 13.0 | 0.02 | 0.06 | 0.04 | 47 | 1013.1 |
| 20260503110437 | 49 | 277 | 4.3 | 11.3 | 0.00 | 0.04 | 0.02 | 51 | 1012.8 |
| 20260503110153 | 49 | 258 | 5.2 | 11.3 | 0.00 | 0.04 | 0.02 | 51 | 1012.7 |
| 20260503090324 | 48 | 240 | 0.9 | 6.1 | 0.00 | 0.04 | 0.02 | 49 | 1013.2 |
| 20260503081529 | 48 | 258 | 0.9 | 6.1 | 0.00 | 0.06 | 0.02 | 48 | 1013.3 |
| 20260503080807 | 48 | 265 | 0.0 | 6.1 | 0.00 | 0.06 | 0.02 | 48 | 1013.4 |
| 20260503080307 | 48 | 289 | 2.6 | 6.1 | 0.00 | 0.06 | 0.02 | 48 | 1013.3 |
| 20260503072739 | 49 | 243 | 0.9 | 6.1 | 0.00 | 0.06 | 0.02 | 47 | 1013.5 |
| 20260503072239 | 49 | 220 | 0.9 | 6.1 | 0.00 | 0.06 | 0.02 | 47 | 1013.5 |
| 20260503072003 | 49 | 232 | 0.9 | 4.3 | 0.00 | 0.06 | 0.02 | 47 | 1013.5 |
| 20260503071231 | 49 | 251 | 0.0 | 4.3 | 0.00 | 0.06 | 0.02 | 47 | 1013.5 |
| 20260503070726 | 49 | 254 | 0.9 | 7.8 | 0.00 | 0.06 | 0.02 | 47 | 1013.5 |
| 20260503070211 | 49 | 303 | 0.0 | 7.8 | 0.00 | 0.06 | 0.02 | 47 | 1013.6 |
| 20260503060331 | 49 | 223 | 0.9 | 6.1 | 0.02 | 0.06 | 0.02 | 46 | 1014.0 |
| 20260503060213 | 49 | 247 | 0.0 | 6.1 | 0.02 | 0.06 | 0.02 | 46 | 1014.0 |
| 20260503055110 | 49 | 217 | 1.7 | 7.8 | 0.02 | 0.06 | 0.02 | 46 | 1014.1 |
| 20260503054613 | 49 | 208 | 3.5 | 7.8 | 0.02 | 0.06 | 0.02 | 46 | 1014.1 |
| 20260503054106 | 49 | 122 | 3.5 | 7.8 | 0.02 | 0.06 | 0.02 | 46 | 1014.3 |
| 20260503053608 | 50 | 247 | 1.7 | 7.8 | 0.02 | 0.06 | 0.02 | 46 | 1014.3 |
| 20260503053042 | 50 | 237 | 0.0 | 7.8 | 0.02 | 0.06 | 0.02 | 46 | 1014.3 |
| 20260503052543 | 50 | 219 | 0.9 | 7.0 | 0.02 | 0.06 | 0.02 | 46 | 1014.4 |
| 20260503052040 | 50 | 243 | 0.0 | 7.0 | 0.02 | 0.06 | 0.02 | 46 | 1014.5 |
| 20260503051541 | 50 | 279 | 0.9 | 7.0 | 0.00 | 0.04 | 0.00 | 46 | 1014.5 |
| 20260503051300 | 50 | 227 | 2.6 | 7.0 | 0.00 | 0.04 | 0.00 | 46 | 1014.5 |
| 20260503050523 | 50 | 236 | 0.0 | 5.2 | 0.00 | 0.04 | 0.00 | 46 | 1014.5 |
| 20260503050028 | 50 | 261 | 0.0 | 7.0 | 0.00 | 0.04 | 0.00 | 46 | 1014.5 |
| 20260503045512 | 50 | 220 | 1.7 | 7.0 | 0.00 | 0.04 | 0.04 | 45 | 1014.6 |
| 20260503045011 | 50 | 260 | 0.0 | 5.2 | 0.00 | 0.04 | 0.04 | 46 | 1014.6 |
| 20260503044510 | 50 | 225 | 1.7 | 4.3 | 0.00 | 0.04 | 0.04 | 45 | 1014.6 |
| 20260503044241 | 50 | 220 | 0.9 | 5.2 | 0.00 | 0.04 | 0.04 | 46 | 1014.6 |
| 20260503043510 | 50 | 243 | 0.0 | 7.8 | 0.00 | 0.04 | 0.04 | 46 | 1014.6 |
| 20260503042958 | 50 | 222 | 0.0 | 7.8 | 0.00 | 0.04 | 0.04 | 45 | 1014.6 |
| 20260503042700 | 50 | 217 | 0.0 | 6.1 | 0.00 | 0.04 | 0.04 | 46 | 1014.6 |
| 20260503041938 | 50 | 282 | 0.0 | 3.5 | 0.00 | 0.04 | 0.04 | 46 | 1014.6 |
| 20260503041429 | 50 | 258 | 1.7 | 3.5 | 0.00 | 0.04 | 0.04 | 46 | 1014.6 |
| 20260503040927 | 50 | 205 | 0.0 | 0.0 | 0.00 | 0.04 | 0.04 | 47 | 1014.6 |
| 20260503040418 | 50 | 205 | 0.0 | 0.0 | 0.00 | 0.04 | 0.04 | 46 | 1014.7 |
| 20260503035916 | 50 | 205 | 0.0 | 0.0 | 0.00 | 0.04 | 0.04 | 46 | 1014.7 |
| 20260503035411 | 51 | 205 | 0.0 | 0.0 | 0.00 | 0.04 | 0.04 | 46 | 1014.7 |
| 20260503035339 | 50 | 205 | 0.0 | 0.0 | 0.00 | 0.04 | 0.04 | 46 | 1014.7 |
| 20260503034829 | 51 | 205 | 0.0 | 2.6 | 0.00 | 0.04 | 0.04 | 46 | 1014.7 |
| 20260503033829 | 51 | 205 | 0.0 | 2.6 | 0.00 | 0.04 | 0.04 | 46 | 1014.7 |
| 20260503033541 | 51 | 248 | 0.0 | 3.5 | 0.00 | 0.04 | 0.04 | 46 | 1014.7 |
| 20260503033037 | 51 | 248 | 0.0 | 3.5 | 0.00 | 0.04 | 0.04 | 46 | 1014.8 |
| 20260503032300 | 51 | 210 | 0.9 | 1.7 | 0.00 | 0.04 | 0.04 | 46 | 1014.8 |
| 20260503031757 | 51 | 206 | 0.0 | 1.7 | 0.00 | 0.04 | 0.04 | 46 | 1014.9 |
| 20260503031524 | 51 | 206 | 0.0 | 1.7 | 0.00 | 0.04 | 0.04 | 45 | 1014.9 |
| 20260503030752 | 51 | 206 | 0.0 | 3.5 | 0.00 | 0.04 | 0.04 | 44 | 1014.9 |
| 20260503030247 | 51 | 201 | 0.0 | 3.5 | 0.00 | 0.04 | 0.04 | 45 | 1014.9 |
| 20260503025740 | 51 | 201 | 0.9 | 3.5 | 0.00 | 0.04 | 0.04 | 44 | 1014.9 |
| 20260503025734 | 51 | 258 | 0.0 | 2.6 | 0.00 | 0.04 | 0.04 | 46 | 1015.0 |
| 20260503024731 | 51 | 199 | 1.7 | 2.6 | 0.00 | 0.04 | 0.04 | 46 | 1015.0 |